Flag for Canada Weather past 2 weeks in Belleville, Ontario, Canada

Now
32 °F

Passing clouds.


Feels Like: 27 °F
Forecast: 33 / 52 °F
Wind: 5 mph from Northwest

Location: Trenton


UV Index: 5 (Moderate)

Visibility: 15 mi


Pressure: 30.38 "Hg

Humidity: 93%

Dew point: 30 °F

Location of BellevilleLocation

Historic Weather in Belleville

°F

Belleville temperature yesterday

Maximum temperature yesterday: 50 °F (at 3:00 PM)
Minimum temperature yesterday: 39 °F (at 7:00 AM)
Average temperature yesterday: 44 °F

Past Weeks' High & Low Weather Summary

 TemperatureHumidityPressure
High68 °F (Apr 14, 11:00 AM)100% (Apr 4, 4:00 PM)30.66 "Hg (Apr 4, 4:00 PM)
Low21 °F (Apr 16, 6:00 AM)34% (Apr 9, 2:00 PM)29.26 "Hg (Apr 8, 8:00 AM)
Average41 °F73%29.97 "Hg
* Reported Apr 4 6:00 AM — Apr 19 6:00 AM, Belleville, Weather by CustomWeather, © 2014

Note: Actual official high and low records may vary slightly from our data, if they occured in-between our weather recording intervals... More about our weather records

Advertising

Historic Weather Conditions — Data for Previous 24 hours

 ConditionsComfort  
Time TempWeatherWind HumidityBarometerVisibility
6:00 AM
Apr 19
32 °FClear.3 mph87%30.34 "Hg15 mi
5:00 AM34 °FClear.2 mph87%30.31 "Hg15 mi
4:00 AM34 °FClear.10 mph87%30.28 "Hg15 mi
3:00 AM36 °FClear.10 mph81%30.27 "Hg15 mi
2:00 AM36 °FPassing clouds.6 mph81%30.27 "Hg15 mi
1:00 AM37 °FPassing clouds.6 mph75%30.26 "Hg15 mi
12:00 AM39 °FClear.7 mph75%30.25 "Hg15 mi
11:00 PM
Apr 18
43 °FPassing clouds.16 mph71%30.24 "Hg15 mi
10:00 PM41 °FPassing clouds.6 mph93%30.23 "Hg15 mi
9:00 PM45 °FPassing clouds.6 mph87%30.22 "Hg15 mi
8:00 PM45 °FScattered clouds.2 mph87%30.20 "Hg15 mi
7:00 PM45 °FPartly sunny.3 mph87%30.22 "Hg15 mi
6:00 PM45 °FMostly cloudy.3 mph81%30.22 "Hg15 mi
5:45 PMN/AMostly cloudy.5 mphN/AN/A15 mi
5:00 PM46 °FSprinkles. Mostly cloudy.5 mph71%30.22 "Hg15 mi
4:00 PM48 °FMore clouds than sun.8 mph58%30.24 "Hg15 mi
3:00 PM50 °FMostly cloudy.8 mph54%30.23 "Hg15 mi
2:00 PM48 °FMostly cloudy.6 mph58%30.26 "Hg15 mi
1:00 PM48 °FMostly cloudy.5 mph58%30.27 "Hg15 mi
12:00 PM46 °FMostly cloudy.7 mph62%30.29 "Hg15 mi
11:00 AM46 °FMostly cloudy.9 mph57%30.32 "Hg15 mi
10:00 AM43 °FPartly sunny.9 mph66%30.34 "Hg15 mi
9:00 AM43 °FScattered clouds.9 mph66%30.34 "Hg15 mi
8:00 AM41 °FPartly sunny.9 mph70%30.35 "Hg15 mi
7:00 AM39 °FPassing clouds.8 mph75%30.34 "Hg15 mi
Weather by CustomWeather, © 2014

See weather overview